[[{"header":{"parameterUnit":"m.s-1","parameterCategory":1,"la1":30.2991,"la2":30.254,"lo1":-89.0895,"lo2":-89.0444,"dy":0.0017,"dx":0.0017,"nx":28,"ny":28,"refTime":"2023-05-23T21:00:00:Z","depth":0,"parameterNumber":2,"parameterNumberName":"U-component_of_WINDS"},"data":[0,0,0,0,0,0,0,0,0,0,0,0,0,0,0,0,0,0,0,0,0,0,0,0,0,0,0,0,0,0,0,0,0,0,0,0,0,0,0,0,0,0,0,0,0,0,0,0,0,0,0,0,0,0,0,0,0,0,-3.7159,-3.7159,0,-3.7157,-3.7157,-3.7157,-3.7073,-3.7071,-3.7068,-3.7066,-3.7065,-3.7067,-3.7069,0,0,0,0,0,0,0,0,0,0,0,0,0,-3.7092,-3.7093,-3.7159,-3.7159,-3.7159,-3.7157,-3.7157,-3.7157,-3.7073,-3.707,-3.7068,-3.7065,-3.7064,-3.7066,-3.7069,0,0,0,0,0,0,0,0,0,0,0,0,0,-3.7108,-3.7094,-3.7159,-3.7117,-3.7113,-3.7157,-3.7157,-3.7157,-3.7074,-3.707,-3.7067,-3.7064,-3.7063,-3.7066,-3.7069,-3.7153,0,0,-3.7078,-3.7079,0,0,0,0,0,0,0,0,-3.7108,-3.7111,-3.7123,-3.712,-3.7116,-3.7112,-3.7132,-3.7156,-3.7075,-3.7089,-3.7066,-3.7063,-3.7083,-3.7084,-3.7091,-3.7153,-3.7153,-3.7078,-3.708,-3.7082,-3.7082,0,0,0,0,0,0,0,-3.7106,-3.7111,-3.7158,-3.7124,-3.7119,-3.7098,-3.7097,-3.7136,-3.7104,-3.7087,-3.7081,-3.7082,-3.708,-3.7088,-3.709,-3.7153,-3.7078,-3.7081,-3.7083,-3.7084,-3.7284,-3.7287,0,0,0,0,0,0,-3.7111,-3.711,-3.7158,-3.7158,-3.7104,-3.7102,-3.7101,-3.7116,-3.7104,-3.7099,-3.7085,-3.7078,-3.7085,-3.7087,-3.709,-3.7188,-3.7081,-3.7084,-3.7086,-3.728,-3.7285,-3.7289,0,0,0,0,0,0,-3.711,-3.7116,-3.7158,-3.7133,-3.7136,-3.7107,-3.7125,-3.7118,-3.7126,-3.7102,-3.7096,-3.7099,-3.7082,-3.7086,-3.7138,-3.7187,-3.7086,-3.7088,-3.7276,-3.7282,-3.7287,-3.7385,0,0,0,0,0,0,-3.7108,-3.7116,-3.7148,-3.7134,-3.7138,-3.7207,-3.7128,-3.712,-3.7131,-3.7122,-3.7113,-3.7109,-3.708,-3.7134,-3.7141,-3.7189,-3.7091,-3.7272,-3.7279,-3.7285,-3.7377,-3.7393,-3.7406,0,0,0,0,0,-3.7106,-3.7175,-3.715,-3.7156,-3.7177,-3.721,-3.7212,-3.7178,-3.7135,-3.7167,-3.7151,-3.7109,-3.718,-3.714,-3.7147,-3.7197,-3.7269,-3.7277,-3.7284,-3.7371,-3.739,-3.7406,0,0,0,0,0,0,-3.7196,-3.7173,-3.7144,-3.7211,-3.7213,-3.7196,-3.7234,-3.7199,-3.7213,-3.7204,-3.7161,-3.716,-3.7219,-3.7213,-3.7169,-3.7278,-3.7217,-3.7227,-3.728,-3.7298,-3.7312,-3.7313,-3.7093,0,0,0,0,0,-3.7223,-3.7252,-3.723,-3.7291,-3.7294,-3.7264,-3.7277,-3.725,-3.7251,-3.7251,-3.7239,-3.7242,-3.7264,-3.728,-3.73,-3.7375,-3.7373,-3.7413,-3.7427,-3.7439,-3.7449,-3.7489,-3.7507,-3.7315,-3.7315,-3.7314,0,0,-3.7281,-3.7272,-3.7292,-3.7309,-3.7307,-3.7338,-3.7265,-3.7301,-3.7324,-3.7257,-3.7306,-3.7297,-3.7297,-3.7361,-3.7389,-3.7358,-3.7501,-3.745,-3.7459,-3.7462,-3.7499,-3.7517,-3.7534,-3.732,-3.7319,-3.7318,0,0,-3.7401,-3.7397,-3.7448,-3.7447,-3.7446,-3.7426,-3.7438,-3.7426,-3.7418,-3.7466,-3.7417,-3.7443,-3.7483,-3.7485,-3.7491,-3.7613,-3.7574,-3.762,-3.7697,-3.7736,-3.7752,-3.7765,-3.7809,-3.7826,-3.7629,-3.7629,-3.763,0,-3.7473,-3.7517,-3.7478,-3.7517,-3.7527,-3.7467,-3.7518,-3.752,-3.7525,-3.7533,-3.7498,-3.7547,-3.7543,-3.7607,-3.7637,-3.7644,-3.7657,-3.7622,-3.7752,-3.7765,-3.7777,-3.7819,-3.7836,-3.7635,-3.7634,-3.7634,-3.7633,0,-3.7606,-3.7637,-3.7679,-3.7685,-3.7699,-3.7744,-3.7712,-3.773,-3.7702,-3.7686,-3.7736,-3.7729,-3.7746,-3.7759,-3.7732,-3.782,-3.7801,-3.776,-3.7698,-3.7802,-3.7841,-3.7856,-3.7643,-3.7641,-3.7639,-3.7638,0,0,-3.7784,-3.7768,-3.7784,-3.7787,-3.778,-3.7804,-3.7847,-3.7863,-3.7881,-3.7886,-3.7921,-3.7956,-3.7918,-3.7926,-3.7898,-3.7933,-3.8031,-3.7887,-3.7887,-3.7915,-3.8129,-3.8161,-3.818,-3.8005,-3.8008,-3.801,-3.8129,0,-3.7901,-3.7973,-3.7939,-3.8015,-3.8044,-3.7988,-3.8025,-3.8025,-3.8011,-3.8034,-3.8018,-3.8044,-3.7991,-3.7996,-3.8027,-3.8012,-3.8073,-3.8003,-3.8038,-3.804,-3.8041,-3.82,-3.8234,-3.8347,-3.8144,-3.8146,-3.8148,0,-3.8048,-3.806,-3.8139,-3.8128,-3.8139,-3.8173,-3.8186,-3.8208,-3.8208,-3.8195,-3.8203,-3.8168,-3.8209,-3.8147,-3.8203,-3.8156,-3.8168,-3.8163,-3.8167,-3.817,-3.8101,-3.8209,-3.8382,-3.84,-3.8171,-3.817,-3.8168,0,-3.8172,-3.8207,-3.8259,-3.8263,-3.8251,-3.8277,-3.8273,-3.8269,-3.8281,-3.8293,-3.83,-3.8316,-3.8326,-3.8339,-3.8309,-3.8266,-3.837,-3.8305,-3.8362,-3.8363,-3.8387,-3.8386,-3.8566,-3.8393,-3.8393,-3.8392,-3.8392,0,-3.8308,-3.8359,-3.8315,-3.8347,-3.8403,-3.8363,-3.8419,-3.8409,-3.8406,-3.8435,-3.8387,-3.8416,-3.8374,-3.8398,-3.8375,-3.8426,-3.843,-3.8422,-3.8415,-3.8427,-3.8428,-3.8435,-3.8427,-3.8397,-3.8396,-3.8395,-3.8394,0,-3.8456,-3.8428,-3.8482,-3.8466,-3.8463,-3.8505,-3.8491,-3.8521,-3.8503,-3.8541,-3.8547,-3.852,-3.8546,-3.8517,-3.8542,-3.8526,-3.8596,-3.8577,-3.8596,-3.8591,-3.865,-3.8645,-3.8842,-3.8866,-3.8676,-3.8678,-3.8679,0,-3.8545,-3.8583,-3.8571,-3.8588,-3.8587,-3.8613,-3.8626,-3.8588,-3.8603,-3.8605,-3.8635,-3.8657,-3.8673,-3.8719,-3.8701,-3.872,-3.8702,-3.8769,-3.8704,-3.8715,-3.8704,-3.8703,-3.8707,-3.8783,-3.8785,-3.8787,-3.8789,0,-3.8707,-3.8691,-3.8711,-3.8727,-3.8743,-3.8753,-3.876,-3.8776,-3.8736,-3.8756,-3.8782,-3.8795,-3.882,-3.8843,-3.8857,-3.8853,-3.8815,-3.8809,-3.8823,-3.8837,-3.8847,-3.8843,-3.8634,-3.8805,-3.8803,-3.8802,-3.8801,-3.8801,-3.8829,-3.886,-3.8857,-3.8881,-3.8882,-3.8889,-3.8916,-3.8902,-3.8923,-3.8941,-3.8917,-3.895,-3.8949,-3.8963,-3.8963,-3.8989,-3.8961,-3.8981,-3.8986,-3.8993,-3.9002,-3.8842,-3.8991,-3.8991,-3.899,-3.899,-3.899,0,-3.8989,-3.8984,-3.9007,-3.9018,-3.9037,-3.8998,-3.9003,-3.9022,-3.9052,-3.9054,-3.9071,-3.9102,-3.9124,-3.9108,-3.9127,-3.9151,-3.9134,-3.9157,-3.9156,-3.9156,-3.9026,-3.9012,-3.917,-3.917,-3.917,-3.917,-3.917,-3.917,-3.9075,-3.9127,-3.9111,-3.9162,-3.9157,-3.9189,-3.9196,-3.9202,-3.9204,-3.924,-3.9259,-3.9248,-3.9243,-3.9261,-3.928,-3.9274,-3.9284,-3.9314,-3.9303,-3.9182,-3.9165,-3.9148,-3.9135,-3.9316,-3.9317,-3.9431,-3.9432,-3.9433]},{"header":{"parameterUnit":"m.s-1","parameterCategory":1,"la1":30.2991,"la2":30.254,"lo1":-89.0895,"lo2":-89.0444,"dy":0.0017,"dx":0.0017,"nx":28,"ny":28,"refTime":"2023-05-23T21:00:00:Z","depth":0,"parameterNumber":3,"parameterNumberName":"V-component_of_WINDS"},"data":[0,0,0,0,0,0,0,0,0,0,0,0,0,0,0,0,0,0,0,0,0,0,0,0,0,0,0,0,0,0,0,0,0,0,0,0,0,0,0,0,0,0,0,0,0,0,0,0,0,0,0,0,0,0,0,0,0,0,-3.5803,-3.5803,0,-3.5777,-3.5777,-3.5776,-3.5711,-3.571,-3.5708,-3.5707,-3.5682,-3.5683,-3.5683,0,0,0,0,0,0,0,0,0,0,0,0,0,-3.5797,-3.5798,-3.5803,-3.5803,-3.5802,-3.5777,-3.5777,-3.5776,-3.5711,-3.5709,-3.5708,-3.5706,-3.5682,-3.5683,-3.5683,0,0,0,0,0,0,0,0,0,0,0,0,0,-3.5788,-3.5798,-3.5803,-3.5767,-3.5763,-3.5777,-3.5777,-3.5776,-3.5712,-3.5709,-3.5707,-3.5705,-3.5682,-3.5683,-3.5684,-3.5731,0,0,-3.5686,-3.5687,0,0,0,0,0,0,0,0,-3.5789,-3.5789,-3.5772,-3.5769,-3.5765,-3.5745,-3.5766,-3.5761,-3.5712,-3.5731,-3.5707,-3.5704,-3.5705,-3.5704,-3.5704,-3.573,-3.5729,-3.5687,-3.5687,-3.5688,-3.5688,0,0,0,0,0,0,0,-3.579,-3.5789,-3.5793,-3.5772,-3.5768,-3.5752,-3.5749,-3.5764,-3.573,-3.5729,-3.5725,-3.5722,-3.5703,-3.5703,-3.5703,-3.5729,-3.5687,-3.5687,-3.5688,-3.5688,-3.5793,-3.5795,0,0,0,0,0,0,-3.5795,-3.579,-3.5793,-3.5792,-3.5772,-3.5754,-3.575,-3.5754,-3.573,-3.5724,-3.5724,-3.5719,-3.5702,-3.5701,-3.5701,-3.5755,-3.5688,-3.5688,-3.5689,-3.5791,-3.5793,-3.5796,0,0,0,0,0,0,-3.5795,-3.5796,-3.5795,-3.579,-3.5788,-3.5756,-3.5761,-3.5754,-3.5754,-3.5726,-3.5719,-3.5731,-3.5701,-3.57,-3.5724,-3.5754,-3.5689,-3.569,-3.5788,-3.5791,-3.5795,-3.5864,0,0,0,0,0,0,-3.5795,-3.5797,-3.5814,-3.5791,-3.5789,-3.5818,-3.5763,-3.5755,-3.5756,-3.575,-3.573,-3.5725,-3.5699,-3.5723,-3.5725,-3.5754,-3.5691,-3.5785,-3.579,-3.5793,-3.5859,-3.587,-3.5878,0,0,0,0,0,-3.5796,-3.5835,-3.5815,-3.5816,-3.581,-3.5819,-3.5818,-3.5787,-3.5759,-3.5776,-3.5758,-3.5726,-3.575,-3.5726,-3.5728,-3.5757,-3.5783,-3.5788,-3.5793,-3.5855,-3.5868,-3.5878,0,0,0,0,0,0,-3.5864,-3.5831,-3.5809,-3.5842,-3.5834,-3.5808,-3.5829,-3.5801,-3.5801,-3.5796,-3.5757,-3.5753,-3.5783,-3.5772,-3.5746,-3.5802,-3.5761,-3.5767,-3.5808,-3.582,-3.5829,-3.5831,-3.5691,0,0,0,0,0,-3.5882,-3.5892,-3.5864,-3.5896,-3.5893,-3.5862,-3.5865,-3.5841,-3.5832,-3.5828,-3.5811,-3.5803,-3.5809,-3.5814,-3.5817,-3.5857,-3.5852,-3.5879,-3.5888,-3.5896,-3.5901,-3.5922,-3.5933,-3.5812,-3.5812,-3.5812,0,0,-3.5922,-3.5905,-3.5914,-3.5909,-3.59,-3.5911,-3.586,-3.5874,-3.5882,-3.583,-3.5852,-3.5839,-3.5828,-3.586,-3.5873,-3.5852,-3.5934,-3.5902,-3.5909,-3.591,-3.5928,-3.5939,-3.595,-3.5815,-3.5815,-3.5814,0,0,-3.5999,-3.5987,-3.6012,-3.6004,-3.5991,-3.597,-3.5976,-3.5954,-3.5944,-3.5965,-3.5926,-3.5936,-3.5947,-3.594,-3.5938,-3.6012,-3.5983,-3.6015,-3.6065,-3.6085,-3.6095,-3.6103,-3.613,-3.6139,-3.602,-3.602,-3.602,0,-3.6049,-3.6064,-3.6029,-3.6046,-3.6045,-3.5998,-3.6023,-3.6017,-3.6006,-3.6007,-3.5983,-3.5996,-3.5985,-3.6015,-3.6033,-3.6033,-3.6039,-3.6017,-3.6096,-3.6104,-3.6111,-3.6136,-3.6146,-3.6024,-3.6024,-3.6023,-3.6023,0,-3.6127,-3.6138,-3.616,-3.615,-3.6151,-3.6172,-3.6141,-3.6147,-3.6123,-3.6105,-3.6127,-3.6112,-3.6112,-3.6118,-3.6095,-3.6145,-3.6132,-3.6103,-3.6061,-3.6127,-3.615,-3.6159,-3.603,-3.6029,-3.6027,-3.6026,0,0,-3.6246,-3.6216,-3.6225,-3.6219,-3.6201,-3.6209,-3.6228,-3.6227,-3.6233,-3.6227,-3.6242,-3.6252,-3.6225,-3.6223,-3.6199,-3.6217,-3.6277,-3.6186,-3.6185,-3.6203,-3.633,-3.6352,-3.6364,-3.6257,-3.6259,-3.626,-3.6331,0,-3.6319,-3.6349,-3.6318,-3.6355,-3.6364,-3.632,-3.6336,-3.6327,-3.6311,-3.6317,-3.6299,-3.6307,-3.6271,-3.6269,-3.6285,-3.6266,-3.6302,-3.6261,-3.6271,-3.6272,-3.6275,-3.6376,-3.6399,-3.6467,-3.634,-3.6342,-3.6343,0,-3.6407,-3.6404,-3.6442,-3.6421,-3.6424,-3.6439,-3.6436,-3.6442,-3.6431,-3.6418,-3.6416,-3.6387,-3.6404,-3.6364,-3.6387,-3.636,-3.6363,-3.6354,-3.6356,-3.6356,-3.6311,-3.6378,-3.6488,-3.6498,-3.6356,-3.6355,-3.6354,0,-3.649,-3.6496,-3.6519,-3.6516,-3.6492,-3.6504,-3.6494,-3.6481,-3.6482,-3.648,-3.648,-3.648,-3.648,-3.6481,-3.6453,-3.6426,-3.648,-3.6437,-3.647,-3.6471,-3.6484,-3.6483,-3.6595,-3.6486,-3.6485,-3.6485,-3.6485,0,-3.6574,-3.6599,-3.6556,-3.657,-3.6597,-3.6561,-3.6589,-3.6575,-3.6563,-3.6574,-3.6536,-3.6547,-3.6509,-3.6517,-3.6495,-3.6518,-3.6518,-3.6509,-3.6502,-3.6512,-3.6513,-3.6513,-3.6508,-3.6488,-3.6487,-3.6487,-3.6486,0,-3.6672,-3.6644,-3.6666,-3.6641,-3.6636,-3.6656,-3.6635,-3.6648,-3.6629,-3.6643,-3.6645,-3.6615,-3.6622,-3.6594,-3.6596,-3.6581,-3.6616,-3.6602,-3.6619,-3.6615,-3.6649,-3.6647,-3.6765,-3.6779,-3.6661,-3.6662,-3.6663,0,-3.6727,-3.6745,-3.6722,-3.6726,-3.6719,-3.6726,-3.6727,-3.6693,-3.6696,-3.6684,-3.6698,-3.6702,-3.6703,-3.6716,-3.6695,-3.6696,-3.6682,-3.6723,-3.6682,-3.6691,-3.6683,-3.6682,-3.6683,-3.6732,-3.6734,-3.6735,-3.6736,0,-3.6829,-3.6814,-3.6816,-3.6815,-3.6817,-3.6814,-3.6808,-3.6814,-3.6777,-3.6782,-3.6788,-3.6789,-3.6791,-3.6795,-3.6792,-3.6783,-3.6754,-3.6749,-3.6756,-3.6766,-3.6776,-3.6771,-3.6643,-3.6746,-3.6745,-3.6745,-3.6744,-3.6744,-3.6907,-3.692,-3.6906,-3.691,-3.6902,-3.6898,-3.6908,-3.689,-3.6894,-3.6893,-3.6872,-3.6883,-3.6871,-3.6864,-3.6857,-3.6865,-3.6846,-3.6857,-3.686,-3.6863,-3.6869,-3.6775,-3.6865,-3.6864,-3.6864,-3.6864,-3.6863,0,-3.7006,-3.6994,-3.6999,-3.6992,-3.6995,-3.6966,-3.6959,-3.6964,-3.6973,-3.6964,-3.6965,-3.6973,-3.6976,-3.6956,-3.6956,-3.6967,-3.6953,-3.6968,-3.6967,-3.6965,-3.6886,-3.6879,-3.6979,-3.6979,-3.6979,-3.6979,-3.6979,-3.6979,-3.7058,-3.7079,-3.7063,-3.708,-3.7069,-3.7078,-3.7076,-3.7072,-3.7064,-3.7074,-3.7076,-3.7062,-3.7049,-3.7049,-3.7051,-3.7045,-3.7047,-3.7066,-3.7056,-3.6982,-3.6971,-3.696,-3.6954,-3.7067,-3.7067,-3.7134,-3.7135,-3.7135]}]]